Tracking 26321 objects as of 28-Nov-2022
HD Live streaming from Space Station
objects crossing your sky now

CZ-4B R/B

Track CZ-4B R/B now!
10-day predictions


NORAD ID: 43656
Int'l Code: 2018-081B
Perigee: 647.2 km
Apogee: 946.2 km
Inclination: 99.4 °
Period: 100.7 minutes
Semi major axis: 7167 km
RCS: Unknown
Launch date: October 24, 2018
Source: People's Republic of China (PRC)
Launch site: Taiyaun Space Center, China (TSC)

Note: This is a ROCKET BODY
aabbcc
Your satellite tracking list
Your tracking list is empty




NASA's NSSDC Master Catalog

Two Line Element Set (TLE):
1 43656U 18081B   22331.89472729  .00000068  00000-0  38107-4 0  9998
2 43656  99.4206 119.1506 0208582  35.0812 326.3903 14.30660191213725
Source of the keplerian elements: AFSPC